San Diego, CA

3:28 AM PDT on March 29, 2017 (GMT -0700)
San Diego International-Lindbergh

Weather History for KSAN - April, 2013

Change the Weather History Date:

Friday, April 12, 2013

  Actual Average Record
Temperature  
Mean Temperature 62 °F 61 °F  
Max Temperature 66 °F 67 °F 93 °F (1888)
Min Temperature 57 °F 55 °F 43 °F (1927)
Degree Days  
Heating Degree Days 3 4  
Month to date heating degree days 39 53  
Since 1 July heating degree days 1020 1089  
Cooling Degree Days 0 0  
Month to date cooling degree days 0 0  
Year to date cooling degree days 4 10  
Growing Degree Days 12 (Base 50)    
Moisture  
Dew Point 50 °F    
Average Humidity 68    
Maximum Humidity 80    
Minimum Humidity 56    
Precipitation  
Precipitation 0.00 in 0.03 in 0.95 in (1856)
Month to date precipitation T 0.41  
Year to date precipitation 3.06 6.47  
Since 1 July precipitation 6.23  
Snow  
Snow 0.00 in - - ()
Month to date snowfall 0.0  
Year to date snowfall 0.0  
Snow Depth 0.00 in    
Sea Level Pressure  
Sea Level Pressure 29.86 in    
Wind  
Wind Speed 7 mph (WSW)    
Max Wind Speed 13 mph    
Max Gust Speed 18 mph    
Visibility 10 miles    
Events      
T = Trace of Precipitation, MM = Missing Value Source: NWS Daily Summary

Daily Weather History Graph

Daily Weather History Graph

Search for Another Location

Airport or City:

Trip Planner

Search our weather history database for the weather conditions in past years. The results will help you decide how hot, cold, wet, or windy it might be!

Date:

Astronomy

Apr. 12, 2013 Rise Set
Actual Time 6:22 AM PDT 7:16 PM PDT
Civil Twilight 5:57 AM PDT 7:42 PM PDT
Nautical Twilight 5:27 AM PDT 8:12 PM PDT
Astronomical Twilight 4:56 AM PDT 8:42 PM PDT
Moon 7:42 AM PDT (4/12) 9:43 PM PDT (4/12)
Length of Visible Light 13h 44m
Length of Day
12h 54m
Waxing Crescent, 6% of the Moon is Illuminated
Apr 12
Waxing Crescent
Apr 18
First Quarter
Apr 25
Full
May 2
Last Quarter
May 9
New

Hourly Weather History & Observations

Time (PDT) Temp. Dew Point Humidity Pressure Visibility Wind Dir Wind Speed Gust Speed Precip Events Conditions
12:51 AM 59.0 °F 50.0 °F 72% 29.86 in 9.0 mi SSE 8.1 mph - N/A   Overcast
1:51 AM 59.0 °F 51.1 °F 75% 29.85 in 9.0 mi South 9.2 mph - N/A   Overcast
2:51 AM 57.9 °F 52.0 °F 81% 29.83 in 9.0 mi SSW 5.8 mph - N/A   Overcast
3:28 AM 57.2 °F 51.8 °F 82% 29.82 in 9.0 mi South 5.8 mph - N/A   Overcast
3:51 AM 57.0 °F 51.1 °F 81% 29.82 in 9.0 mi SSW 8.1 mph - N/A   Overcast
4:51 AM 57.9 °F 50.0 °F 75% 29.82 in 10.0 mi SW 6.9 mph - N/A   Overcast
5:51 AM 57.9 °F 48.0 °F 70% 29.83 in 10.0 mi South 6.9 mph - N/A   Overcast
6:51 AM 57.9 °F 48.0 °F 70% 29.82 in 10.0 mi Calm Calm - N/A   Overcast
7:51 AM 59.0 °F 48.0 °F 67% 29.84 in 10.0 mi ENE 3.5 mph - N/A   Overcast
8:51 AM 59.0 °F 48.0 °F 67% 29.86 in 10.0 mi West 6.9 mph - N/A   Overcast
9:51 AM 61.0 °F 48.0 °F 62% 29.88 in 10.0 mi Variable 5.8 mph - N/A   Mostly Cloudy
10:17 AM 60.8 °F 48.2 °F 63% 29.88 in 10.0 mi Variable 4.6 mph - N/A   Scattered Clouds
10:51 AM 62.1 °F 48.0 °F 60% 29.88 in 10.0 mi WNW 5.8 mph - N/A   Scattered Clouds
11:51 AM 64.0 °F 48.9 °F 58% 29.87 in 10.0 mi Variable 5.8 mph - N/A   Partly Cloudy
12:51 PM 64.0 °F 48.9 °F 58% 29.86 in 10.0 mi West 9.2 mph - N/A   Clear
1:51 PM 64.9 °F 48.9 °F 56% 29.85 in 10.0 mi WNW 8.1 mph - N/A   Partly Cloudy
2:51 PM 64.9 °F 50.0 °F 58% 29.83 in 10.0 mi West 10.4 mph - N/A   Partly Cloudy
3:51 PM 64.0 °F 50.0 °F 60% 29.82 in 10.0 mi West 10.4 mph - N/A   Partly Cloudy
4:51 PM 63.0 °F 50.0 °F 63% 29.83 in 10.0 mi WNW 10.4 mph - N/A   Scattered Clouds
5:02 PM 62.6 °F 50.0 °F 63% 29.83 in 10.0 mi WNW 10.4 mph - N/A   Mostly Cloudy
5:51 PM 62.1 °F 51.1 °F 67% 29.83 in 10.0 mi West 8.1 mph - N/A   Mostly Cloudy
6:51 PM 61.0 °F 51.1 °F 70% 29.85 in 10.0 mi West 6.9 mph - N/A   Mostly Cloudy
7:51 PM 61.0 °F 51.1 °F 70% 29.87 in 10.0 mi WNW 5.8 mph - N/A   Mostly Cloudy
8:51 PM 60.1 °F 51.1 °F 72% 29.90 in 10.0 mi NNW 3.5 mph - N/A   Mostly Cloudy
9:51 PM 60.1 °F 51.1 °F 72% 29.91 in 10.0 mi SW 3.5 mph - N/A   Mostly Cloudy
10:51 PM 60.1 °F 51.1 °F 72% 29.92 in 10.0 mi SW 4.6 mph - N/A   Mostly Cloudy
11:51 PM 60.1 °F 51.1 °F 72% 29.92 in 10.0 mi South 3.5 mph - N/A   Overcast